Location: Biest
(50.8627°N, 4.7735°E)
Time: 22:36:00
(UTC+00:00)

Daily predictions for brighter satellites

Satellite Brightness Start Highest point End
(mag) Time Altitude Azimuth Time Altitude Azimuth Time Altitude Azimuth
BREEZE-M (TANK) 4.5 17:34:42 10° W 17:38:59 73° S 17:57:49 10° ESE
Cosmos 1844 Rocket 3.3 17:58:58 10° SSE 18:03:53 33° ESE 18:08:50 10° NE
Cosmos 1707 2.7 18:00:16 10° N 18:04:06 62° ENE 18:07:53 10° SSE
NOSS 3-2 (C) 4.1 17:58:12 10° NW 18:05:28 73° NE 18:13:49 10° SE
Cosmos 372 Rocket 4.1 18:00:35 10° S 18:05:41 57° ESE 18:10:48 10° NNE
ATLAS CENTAUR R/B 3.8 18:07:42 10° NW 18:09:27 13° NNW 18:11:11 10° N
ISS -3.7 18:07:50 10° WSW 18:11:11 66° SSE 18:14:33 10° ENE
Cosmos 1844 4.4 18:06:26 10° SSE 18:11:21 31° ESE 18:16:14 10° NE
Cosmos 2034 Rocket 4.5 18:06:13 10° SSE 18:12:01 39° E 18:17:48 10° NNE
Lacrosse 4 Rocket 3.4 18:11:09 10° N 18:13:25 14° NNE 18:15:42 10° ENE
USA 186 3.3 18:11:42 10° ESE 18:14:07 19° ENE 18:16:32 10° NNE
Cosmos 1898 Rocket 4.5 18:10:04 10° SW 18:15:06 52° WNW 18:20:13 10° NNE
Meteor 1-12 Rocket 4.4 18:09:33 10° S 18:15:15 54° E 18:20:51 10° NNE
Cosmos 1300 Rocket 3.7 18:16:13 10° S 18:20:31 53° E 18:24:51 10° NNE
Okean 1 Rocket 4.2 18:20:25 10° SE 18:23:55 23° E 18:27:25 10° NE
CENTAUR R/B 3.2 18:16:38 10° NW 18:24:32 83° NE 18:33:20 10° SE
Sich 1 Rocket 3.7 18:20:18 10° S 18:24:50 88° E 18:29:27 10° N
NOSS 2-2 (E) 3.6 18:21:53 10° SW 18:25:26 67° NW 18:29:39 10° NE
Cosmos 1833 Rocket 3.8 18:21:01 10° NNW 18:25:53 28° NE 18:30:11 12° E
Cosmos 2298 Rocket 4.1 18:21:45 10° S 18:26:58 59° ESE 18:32:13 10° NNE
Resurs 01 Rocket 3.6 18:25:52 10° E 18:27:51 13° NE 18:30:01 10° NNE
Cosmos 1975 4.5 18:24:19 10° SW 18:28:10 40° WNW 18:32:02 10° N
Iridium 4 Rocket 4.5 18:24:09 10° SSW 18:29:18 56° W 18:34:56 10° N
CSL-04 Debris 4.2 18:25:50 10° SSE 18:31:14 89° WSW 18:36:40 10° NNW
CSL-04 Rocket 3.7 18:27:43 10° SSE 18:33:11 90° WSW 18:38:46 10° NNW
Cosmos 1025 Rocket 3.0 18:29:05 10° N 18:33:31 88° E 18:37:55 10° S
Cosmos 1766 4.5 18:31:49 10° SE 18:34:52 22° E 18:37:57 10° NE
Okean 2 Rocket 3.0 18:30:34 10° S 18:35:02 75° E 18:39:31 10° NNE
ATLAS 2AS CENTAUR R/B 3.7 18:28:28 10° S 18:35:10 31° ESE 18:41:50 10° NE
NOSS 2-2 (D) 3.5 18:31:46 10° SW 18:35:17 68° NW 18:39:26 10° NE
YAOGAN 1 3.3 18:31:32 10° S 18:35:48 58° W 18:40:06 10° NNW
ATLAS 3B R/B 3.2 18:30:19 10° NW 18:36:52 48° NNE 18:42:35 15° ESE
Abrixas rocket 3.0 18:37:47 10° W 18:40:25 33° SSW 18:42:11 16° SE
CREW DRAGON DEMO-1 DEB 3.6 18:39:19 10° W 18:42:13 44° SSW 18:44:16 17° SE
Cosmos 1513 Rocket 4.5 18:36:26 10° S 18:42:40 85° E 18:48:50 10° N
Cosmos 1536 Rocket 3.5 18:38:48 10° N 18:43:18 84° E 18:47:46 10° SSE
Cosmos 1125 Rocket 3.6 18:42:26 10° S 18:47:37 55° ESE 18:52:49 10° NNE
SJ-6B 3.2 18:48:31 17° SE 18:51:02 40° ENE 18:54:37 10° N
CZ-4 R/B 3.4 18:49:44 10° SSW 18:53:31 32° W 18:57:18 10° NNW
USA 238 DEB 4.5 18:46:45 10° NW 18:53:46 57° SW 19:01:03 10° SSE
USA 238 4.4 18:46:51 10° NW 18:53:53 57° SW 19:01:10 10° SSE
Cosmos 2150 Rocket 4.1 18:49:07 10° SSW 18:54:32 87° ESE 19:00:03 10° NNE
CZ-2C R/B 3.9 18:50:16 10° S 18:55:35 58° W 19:01:13 10° NNW
Cosmos 1674 2.6 18:51:50 10° N 18:55:42 78° E 18:59:32 10° SSE
Cosmos 1464 Rocket 4.1 18:49:53 10° SSW 18:56:01 81° W 19:02:17 10° N
Cosmos 2026 Rocket 4.3 18:50:07 10° N 18:56:18 49° ENE 19:02:16 11° SSE
Cosmos 1092 Rocket 4.0 18:50:27 10° N 18:56:35 62° ENE 19:02:43 10° SSE
Cosmos 2285 Rocket 4.0 18:52:13 10° S 18:58:22 57° ESE 19:04:35 10° NNE
MOS 1 Rocket 3.0 18:57:47 10° NNE 19:02:13 83° ESE 19:06:30 10° SSW
FREGAT/IRIS 2.5 19:04:41 44° E 19:04:46 44° ENE 19:07:17 10° N
TSX-5 4.4 19:05:45 10° S 19:09:26 39° ESE 19:14:06 10° NE
ARGOS 3.4 19:05:47 10° S 19:11:08 69° WSW 19:16:31 10° NNW
CZ-2C R/B 2.8 19:06:56 10° NNE 19:12:24 53° E 19:17:52 10° S
Cosmos 1340 Rocket 3.4 19:15:11 34° E 19:15:15 34° E 19:18:53 10° NNE
Cosmos 1733 3.3 19:13:48 14° S 19:16:55 52° E 19:20:39 10° NNE
Cosmos 2151 Rocket 4.2 19:13:20 10° SSW 19:17:46 59° WNW 19:22:15 10° N
MOS 1 4.2 19:13:05 11° SSE 19:18:31 80° ENE 19:24:15 10° NNW
Lacrosse 5 rocket 2.4 19:14:22 10° WNW 19:18:31 40° N 19:20:43 24° ENE
Cosmos 2082 Rocket 2.9 19:13:54 10° NNW 19:19:07 37° NE 19:21:17 27° E
DMSP B5D2-2 4.2 19:17:03 10° NNE 19:22:16 54° E 19:27:25 10° S
BREEZE-M DEB (TANK) 4.4 19:19:30 10° W 19:22:37 30° SSW 19:27:36 16° SSE
BREEZE-M R/B 3.8 19:14:12 10° WSW 19:23:26 54° S 19:24:25 40° ESE
Meteor 1-15 Rocket 4.3 19:22:49 10° SSW 19:28:29 80° WNW 19:34:18 10° N
OBJECT-B 0.8 19:28:48 58° ENE 19:28:48 58° ENE 19:31:59 10° N
Cosmos 1805 3.2 19:24:54 10° SSW 19:28:49 83° W 19:32:46 10° N
Ariane Rocket 3.2 19:28:05 11° S 19:32:58 71° WSW 19:38:04 10° NNW
SL-08 RB Rocket 4.3 19:28:35 10° S 19:33:04 55° W 19:37:32 10° NNW
H-2A R/B 3.6 19:30:06 10° SSW 19:34:39 34° W 19:39:20 10° NNW
Cosmos 1269 Rocket 4.3 19:30:40 10° NNW 19:35:58 69° WSW 19:39:33 21° S
Cosmos 1626 2.2 19:37:17 10° NNW 19:41:00 75° W 19:42:02 45° S
Okean 1-7 Rocket 3.7 19:36:49 10° N 19:41:19 53° ENE 19:41:50 50° ESE
Terra 3.9 19:42:51 13° NE 19:42:51 13° NE 19:44:42 10° NNE
MetOp-A 4.3 19:40:20 17° S 19:44:30 72° WSW 19:49:54 10° NNW
USA 186 3.5 19:42:34 17° SSW 19:44:37 33° W 19:47:39 10° NNW
COSMOS 2406 3.2 19:39:34 10° NNW 19:45:15 81° WSW 19:47:55 33° SSE
Cosmos 1455 Rocket 3.9 19:47:18 34° NE 19:47:18 34° NE 19:50:13 10° NNE
Cosmos 1844 Rocket 3.5 19:42:10 10° SW 19:47:36 51° NW 19:53:04 10° NNE
ISS -3.5 19:44:38 10° W 19:47:46 69° NW 19:47:46 69° NW
SPOT 1/Viking Rocket 4.4 19:48:44 32° ENE 19:48:52 32° ENE 19:53:24 10° N
ATLAS CENTAUR R/B 3.8 19:49:10 10° N 19:49:55 10° N 19:50:42 10° NNE
Cosmos 2278 Rocket 2.3 19:46:13 10° S 19:51:36 47° ESE 19:57:00 10° NE
Lacrosse 4 Rocket 1.4 19:48:54 10° NNW 19:52:52 59° NE 19:52:52 59° NE
Cosmos 1844 4.4 19:49:41 10° SW 19:55:15 54° NW 20:00:47 10° NNE
Meteor 2-5 Rocket 4.4 19:49:48 10° NNW 19:55:19 54° W 20:00:46 11° S
Meteor 1-22 Rocket 4.3 19:50:25 10° S 19:56:22 90° E 20:02:30 10° NNE
Meteor 1-24 Rocket 4.0 19:52:11 10° NNW 19:57:42 65° W 20:01:37 21° S
Cosmos 909 Rocket 4.1 19:51:26 10° NW 19:58:04 68° NE 19:59:55 46° ESE
Exosat Rocket 4.0 19:54:25 10° SW 19:59:32 59° WNW 20:04:35 10° NNE
Cosmos 2266 Rocket 4.1 19:54:04 10° N 19:59:54 47° ENE 20:00:33 45° E
SL-14 R/B 3.9 19:57:03 10° NNW 20:00:55 53° W 20:01:55 41° SW
Okean 1 Rocket 4.1 19:57:13 10° SSW 20:01:32 46° WNW 20:05:53 10° N
Meteor 2-19 Rocket 4.3 19:55:44 10° N 20:01:53 75° ENE 20:03:47 46° SSE
NOSS 3-4 (A) 3.3 19:56:42 10° SW 20:02:39 84° SE 20:09:06 10° NE
NOSS 3-4 (C) 3.3 19:56:49 10° SW 20:02:46 84° SE 20:09:13 10° NE
Resurs 01 Rocket 1.4 20:03:26 78° ESE 20:03:38 82° ENE 20:08:07 10° NNW
Cosmos 1833 Rocket 2.8 20:04:42 10° NNW 20:10:21 71° WSW 20:11:54 48° S
Cosmos 1470 4.4 20:12:29 26° NNE 20:12:29 26° NNE 20:14:16 10° NNE
CZ-2C R/B 4.0 20:06:28 10° NNE 20:09:58 52° NE 20:09:58 52° NE
Cosmos 2251 Rocket 3.4 20:07:51 10° NNW 20:13:16 78° ENE 20:13:44 72° ESE
CENTAUR R/B 4.4 20:07:46 10° NW 20:14:55 35° WSW 20:22:00 12° S
ERS-1 Rocket 4.0 20:17:39 33° NE 20:17:39 33° NE 20:21:22 10° N
IGS 5A 4.4 20:18:58 40° NNE 20:18:58 40° NNE 20:21:48 10° N
ARIANE 5 R/B 3.1 20:20:05 53° NNE 20:20:05 53° NNE 20:23:31 10° N
SPOT 3 Rocket 4.0 20:20:50 41° SSW 20:22:22 57° WSW 20:27:29 10° NNW
ATLAS 2AS CENTAUR R/B 3.0 20:17:32 10° SW 20:25:33 85° NW 20:33:26 10° NE
Landsat 7 4.1 20:27:59 60° NNE 20:27:59 60° NNE 20:32:01 10° N
ATLAS 3B R/B 3.0 20:21:06 10° NW 20:27:50 60° SW 20:29:50 44° S
SPOT 5 3.9 20:33:48 39° NE 20:33:48 39° NE 20:37:53 10° N
Meteor 1-21 Rocket 4.1 20:27:16 10° N 20:33:06 82° ENE 20:33:15 81° ESE
Meteor 2-10 4.4 20:34:18 56° NE 20:34:18 56° NE 20:38:35 10° NNE
Cosmos 1655 Rocket 4.0 20:30:18 10° NNW 20:36:36 80° W 20:37:50 60° SSW
Cosmos 1461 4.0 20:35:45 10° NW 20:39:30 47° N 20:39:30 47° N
CZ-2C R/B 4.4 20:47:38 10° N 20:52:27 31° WNW 20:57:18 10° WSW
Lacrosse 5 rocket 2.9 20:53:36 10° WNW 20:56:20 37° WNW 20:56:20 37° WNW
Cosmos 2098 Rocket 4.4 20:54:19 10° NNW 21:00:55 54° W 21:01:45 50° WSW
OBJECT-B 4.2 21:01:59 10° WNW 21:01:59 10° WNW 21:02:15 10° WNW
Cosmos 2082 Rocket 2.8 20:57:58 10° NW 21:03:08 48° WSW 21:03:08 48° WSW
Spot 2 Rocket 4.2 21:05:26 51° NW 21:05:26 51° NW 21:09:29 10° NNW
Terra 3.4 21:21:44 30° N 21:21:44 30° N 21:24:10 10° N
ATLAS CENTAUR R/B 4.3 21:27:06 10° NNW 21:27:26 12° NNW 21:27:26 12° NNW
Lacrosse 4 Rocket 4.2 21:28:20 10° WNW 21:29:10 13° WNW 21:29:10 13° WNW
Cosmos 2278 Rocket 3.4 21:33:01 24° W 21:35:49 38° NW 21:41:07 10° NNE
Resurs 01 Rocket 4.3 21:41:00 14° W 21:41:00 14° W 21:43:00 10° WNW
USA 229 DEB 4.4 21:42:12 10° NW 21:49:03 49° NNE 21:49:03 49° NNE
USA 229 4.4 21:42:17 10° NW 21:49:09 49° NNE 21:49:09 49° NNE
NOSS 3-1 (A) 4.5 21:54:31 10° NW 22:01:19 49° NNE 22:01:22 49° NNE
Cosmos 2227 Rocket 4.5 22:07:58 10° N 22:11:22 16° NNE 22:11:40 16° NNE
ATLAS 2AS CENTAUR R/B 4.1 22:10:10 10° W 22:17:34 39° NNW 22:24:42 10° NE
Cosmos 1943 Rocket 4.4 22:24:03 17° NNE 22:24:03 17° NNE 22:25:15 10° NNE
NOSS 3-1 (C) 4.4 22:32:04 10° NW 22:37:24 55° NW 22:37:24 55° NW
CZ-4C R/B 4.1 22:45:17 26° NNE 22:45:17 26° NNE 22:48:32 10° NE
COSMOS 2455 4.5 22:57:42 30° NNW 22:57:42 30° NNW 23:02:14 10° NNE
Cosmos 2297 Rocket 4.2 22:53:27 10° NNW 22:56:26 23° NNE 22:56:26 23° NNE
Cosmos 2369 Rocket 4.3 23:10:31 22° NNE 23:10:31 22° NNE 23:12:26 10° NNE
SL-16 R/B 4.1 23:50:37 28° NE 23:50:37 28° NE 23:54:58 10° N
